{"data":{"norad_id":50804,"epoch":"2026-09-19T06:48:32.512896Z","epoch_age_seconds":150411,"freshness":"FRESH","line1":"1 50804U 22001B   26262.28370964 -.00007055  00000+0 -19767-3 0  9990","line2":"2 50804  53.1614 359.3103 0001208  88.9458 271.1683 15.34428351259916","mean_motion":15.34428351,"eccentricity":0.0001208,"inclination_deg":53.1614,"raan_deg":359.3103,"arg_perigee_deg":88.9458,"mean_anomaly_deg":271.1683,"bstar":-0.00019767,"rev_number":25991,"period_min":93.846024095002,"perigee_km":461.79261303591,"apogee_km":463.44533967979,"semimajor_km":6840.7559763578,"source":"CELESTRAK","updated_at":"2026-09-20T09:00:39.574849Z"}}